Location: Baili�vre
(50.0696°N, 4.2409°E)
Time: 10:26:51
(UTC+00:00)

Meteor 1-25 Rocket - Pass Details

Date: 08 August 2020
Orbit: 837 x 891 km, 81.2° (Epoch: 20 September)

Event Time Altitude Azimuth Distance (km) Brightness Sun altitude
Exits shadow 21:17:54 16° 185° (S) 2,076 5.8 -16.3°
Maximum altitude 21:22:28 80° 100° (E) 863 4.1 -16.7°
Drops below altitude 10° 21:28:06 10° 14° (NNE) 2,489 7.2 -17.2°
Sets 21:30:33 0° 14° (NNE) 3,437 8.0 -17.5°
